星链-31820 (STARLINK-31820 )

导读

STARLINK-31820是美国于北京时间2024年5月10日8时发射的星链卫星,属于SpaceX星链互联网卫星星座,该星座旨在为全球提供高速低延迟卫星互联网服务。该卫星入轨后,将进一步扩充星链星座规模,提升全球网络覆盖能力与服务稳定性。

Basic Information
目录编号:
59725
目录名称:
STARLINK-31820
国际标识:
2024-088T
轨道中心:
EARTH
卫星名称:
星链-31820
卫星全名:
星链-31820 (STARLINK-31820 )
卫星状态:
在轨 (已飞行769 天)
发射日期:
2024-05-10 UTC
国别 :
美国 (US)
星等 :
--
Orbit Information
数据来源 国际轨道数据
星历时间: 2026-06-18T03:03:58+0800
8小时前
查看轨道信息
半长轴: 6848.909km
偏心率: 0.0001375
轨道倾角: 53.161°
近地点辐角 91.734°
升交点赤经 34.578°
平近点角 268.382°
近地点: 469.83km
远地点: 471.714km
周期: 94.014分钟
每日圈数: 15.316895
Detailed Information
固有亮度:
5
最大亮度:
1.5
卫星平台:
Starlink v2.0 mini
覆盖范围:
全球
运营商:
太空探索技术公司
运营商所在国:
美国
制造商(研发单位):
太空探索技术公司
制造商所在国:
美国
使用方式:
暂无
Satellite Introduction
星链(Starlink)计划是由太空探索技术公司(SpaceX)提出的一个巨型低轨卫星互联网星座项目,计划在2019年至2024年间在太空搭建由约1.2万颗卫星组成的“星链”网络,其中1584颗将部署在地球上空550千米处的近地轨道,并从2020年开始工作。该卫星仍在工作。
2D Orbit Map
3D Orbit Map
Orbit Altitude Analysis Chart
Orbit Inclination Analysis Chart
Orbit Comprehensive Analysis Chart
View Comprehensive Chart